GW3693 Weather Reports


time (UTC)temp
F
wind
direction
speed
knots
gust
knots
rain 1hr
in
rain 24hr
in
rain mn
in
humidity
%
barometer
mb
20240614131504 77 49 0.0 1.7 0.00 0.00 0.00 79 1016.6
20240614131002 77 65 0.0 0.0 0.00 0.00 0.00 78 1016.5
20240614130502 76 65 0.0 0.0 0.00 0.00 0.00 82 1016.5
20240614130005 75 77 0.0 0.0 0.00 0.00 0.00 82 1016.4
20240614125502 75 102 0.0 0.0 0.00 0.00 0.00 82 1016.4
20240614125001 74 148 0.0 0.0 0.00 0.00 0.00 85 1016.3
20240614124503 73 148 0.0 0.0 0.00 0.00 0.00 86 1016.3
20240614124002 73 148 0.0 0.0 0.00 0.00 0.00 86 1016.3
20240614123502 72 148 0.0 0.0 0.00 0.00 0.00 87 1016.3
20240614123003 72 148 0.0 0.0 0.00 0.00 0.00 88 1016.4
20240614122503 70 162 0.0 0.0 0.00 0.00 0.00 89 1016.3
20240614122002 70 163 0.0 0.0 0.00 0.00 0.00 90 1016.4
20240614121503 69 163 0.0 0.0 0.00 0.00 0.00 90 1016.3
20240614121003 69 158 0.0 0.0 0.00 0.00 0.00 91 1016.3
20240614120505 69 134 0.0 0.0 0.00 0.00 0.00 91 1016.3
20240614120003 69 134 0.0 0.0 0.00 0.00 0.00 90 1016.4
20240614115502 69 134 0.0 0.0 0.00 0.00 0.00 90 1016.6
20240614115002 68 133 0.0 0.0 0.00 0.00 0.00 92 1016.6
20240614114507 67 134 0.0 0.0 0.00 0.00 0.00 93 1016.6
20240614114002 67 134 0.0 0.0 0.00 0.00 0.00 93 1016.5
20240614113507 67 134 0.0 0.9 0.00 0.00 0.00 92 1016.5
20240614113004 67 134 0.0 0.9 0.00 0.00 0.00 92 1016.5
20240614112504 67 129 0.0 0.9 0.00 0.00 0.00 92 1016.3
20240614112002 67 129 0.0 0.9 0.00 0.00 0.00 92 1016.4
20240614111505 67 57 0.0 0.0 0.00 0.00 0.00 92 1016.5
20240614111003 67 58 0.0 1.7 0.00 0.00 0.00 93 1016.6
20240614110503 66 58 0.0 1.7 0.00 0.00 0.00 94 1016.4
20240614110005 66 54 0.9 1.7 0.00 0.00 0.00 94 1016.3
20240614105503 66 82 0.0 0.0 0.00 0.00 0.00 93 1016.1
20240614105003 66 82 0.0 0.0 0.00 0.00 0.00 94 1016.1
20240614104504 65 82 0.0 0.0 0.00 0.00 0.00 93 1016.0
20240614104004 66 82 0.0 0.0 0.00 0.00 0.00 94 1016.0
20240614103505 66 82 0.0 0.0 0.00 0.00 0.00 94 1016.0
20240614103007 65 83 0.0 0.0 0.00 0.00 0.00 94 1015.8
20240614102503 65 107 0.0 0.0 0.00 0.00 0.00 95 1015.7
20240614102004 65 107 0.0 0.0 0.00 0.00 0.00 94 1015.8
20240614101511 65 107 0.0 0.0 0.00 0.00 0.00 94 1015.7
20240614101003 65 107 0.0 0.0 0.00 0.00 0.00 94 1015.7
20240614100505 65 107 0.0 0.0 0.00 0.00 0.00 94 1015.6
20240614100002 65 107 0.0 0.0 0.00 0.00 0.00 93 1015.6
20240614095502 65 107 0.0 0.0 0.00 0.00 0.00 93 1015.6
20240614095004 65 107 0.0 0.0 0.00 0.00 0.00 93 1015.6
20240614094504 65 107 0.0 0.0 0.00 0.00 0.00 93 1015.4
20240614094003 65 106 0.0 0.0 0.00 0.00 0.00 94 1015.5
20240614093503 65 108 0.0 0.0 0.00 0.00 0.00 94 1015.4
20240614093006 65 108 0.0 0.0 0.00 0.00 0.00 94 1015.4
20240614092502 65 108 0.0 0.0 0.00 0.00 0.00 94 1015.6
20240614092004 65 108 0.0 0.0 0.00 0.00 0.00 94 1015.6
20240614091509 65 108 0.0 0.0 0.00 0.00 0.00 94 1015.6
20240614091004 65 108 0.0 0.0 0.00 0.00 0.00 93 1015.5
20240614090503 65 96 0.0 0.0 0.00 0.00 0.00 93 1015.6
20240614090008 66 63 0.0 0.0 0.00 0.00 0.00 93 1015.7
20240614085504 66 63 0.0 0.0 0.00 0.00 0.00 93 1015.7
20240614085003 66 63 0.0 0.0 0.00 0.00 0.00 92 1015.8
20240614084503 66 63 0.0 0.0 0.00 0.00 0.00 92 1015.7
20240614084003 66 63 0.0 0.0 0.00 0.00 0.00 92 1015.7
20240614083503 66 63 0.0 0.0 0.00 0.00 0.00 91 1015.7
20240614083006 67 62 0.0 0.0 0.00 0.00 0.00 91 1015.8
20240614082503 67 60 0.0 0.0 0.00 0.00 0.00 91 1015.8
20240614082005 68 60 0.0 0.0 0.00 0.00 0.00 90 1015.7
20240614081509 68 59 0.0 0.0 0.00 0.00 0.00 91 1015.8
20240614081003 68 59 0.0 0.0 0.00 0.00 0.00 89 1015.7
20240614080504 68 59 0.0 0.0 0.00 0.00 0.00 89 1015.7
20240614080013 68 59 0.0 0.0 0.00 0.00 0.00 89 1015.7
20240614075505 68 59 0.0 0.0 0.00 0.00 0.00 90 1015.6
20240614075005 68 59 0.0 0.0 0.00 0.00 0.00 90 1015.6
20240614074511 69 59 0.0 0.0 0.00 0.00 0.00 88 1015.6
20240614074006 69 59 0.0 0.0 0.00 0.00 0.00 88 1015.5
20240614073506 69 59 0.0 0.0 0.00 0.00 0.00 88 1015.6
20240614073003 69 59 0.0 0.0 0.00 0.00 0.00 88 1015.5
20240614072503 69 59 0.0 0.0 0.00 0.00 0.00 88 1015.5
20240614072003 69 59 0.0 0.0 0.00 0.00 0.00 88 1015.6
20240614071503 69 59 0.0 0.0 0.00 0.00 0.00 89 1015.7
20240614071003 69 59 0.0 0.0 0.00 0.00 0.00 89 1015.8
20240614070502 68 59 0.0 0.0 0.00 0.00 0.00 90 1015.7
20240614070005 68 59 0.0 0.0 0.00 0.00 0.00 90 1015.5
20240614065503 68 59 0.0 0.0 0.00 0.00 0.00 90 1015.4
20240614065002 67 59 0.0 0.0 0.00 0.00 0.00 91 1015.5
20240614064506 67 59 0.0 0.0 0.00 0.00 0.00 90 1015.5
20240614064002 68 59 0.0 0.0 0.00 0.00 0.00 90 1015.4
20240614063502 68 59 0.0 0.0 0.00 0.00 0.00 89 1015.5
20240614063003 68 59 0.0 0.0 0.00 0.00 0.00 89 1015.6
20240614062502 68 59 0.0 0.0 0.00 0.00 0.00 88 1015.7
20240614062002 69 59 0.0 0.0 0.00 0.00 0.00 88 1015.7
20240614061501 69 59 0.0 0.0 0.00 0.00 0.00 87 1015.7
20240614061003 70 59 0.0 0.0 0.00 0.00 0.00 86 1015.7
20240614060502 70 59 0.0 0.0 0.00 0.00 0.00 85 1015.7
20240614060003 71 59 0.0 0.0 0.00 0.00 0.00 85 1015.7
20240614055505 70 59 0.0 0.0 0.00 0.00 0.00 86 1015.8
20240614055004 70 59 0.0 0.0 0.00 0.00 0.00 88 1015.8
20240614054502 69 59 0.0 0.0 0.00 0.00 0.00 87 1015.7
20240614054003 70 59 0.0 0.0 0.00 0.00 0.00 86 1015.7
20240614053503 70 59 0.0 0.0 0.00 0.00 0.00 85 1015.7
20240614053004 71 59 0.0 0.0 0.00 0.00 0.00 84 1015.6
20240614052504 71 59 0.0 0.0 0.00 0.00 0.00 85 1015.5
20240614052002 71 59 0.0 0.9 0.00 0.00 0.00 86 1015.5
20240614051505 70 59 0.0 1.7 0.00 0.00 0.00 87 1015.6
20240614051002 70 59 0.9 1.7 0.00 0.00 0.00 86 1015.7
20240614050503 70 76 0.9 1.7 0.00 0.00 0.00 86 1015.5
20240614050002 69 77 0.0 0.0 0.00 0.00 0.00 87 1015.3
20240614045501 69 77 0.0 0.0 0.00 0.00 0.00 87 1015.2
20240614045005 69 77 0.0 0.0 0.00 0.00 0.00 86 1015.1
20240614044505 69 77 0.0 0.0 0.00 0.00 0.00 87 1015.1
20240614044002 69 77 0.0 0.0 0.00 0.00 0.00 87 1014.9
20240614043502 69 77 0.0 0.0 0.00 0.00 0.00 86 1015.0
20240614043002 69 77 0.0 0.0 0.00 0.00 0.00 86 1015.1
20240614042503 69 77 0.0 0.0 0.00 0.00 0.00 85 1015.1
20240614042004 69 77 0.0 0.0 0.00 0.00 0.00 85 1015.1
20240614041512 70 77 0.0 0.0 0.00 0.00 0.00 85 1015.1
20240614041004 70 77 0.0 0.0 0.00 0.00 0.00 85 1015.2
20240614040502 70 77 0.0 0.0 0.00 0.00 0.00 84 1015.3
20240614040004 70 77 0.0 0.0 0.00 0.00 0.00 83 1015.2
20240614035502 70 77 0.0 0.0 0.00 0.00 0.00 83 1015.2
20240614035002 71 77 0.0 0.0 0.00 0.00 0.00 83 1015.1
20240614034502 71 77 0.0 0.0 0.00 0.00 0.00 82 1015.1
20240614034004 72 77 0.0 0.0 0.00 0.00 0.00 81 1015.1
20240614033502 72 77 0.0 0.0 0.00 0.00 0.00 80 1015.1
20240614033003 73 77 0.0 0.0 0.00 0.00 0.00 79 1015.1
20240614032503 73 77 0.0 0.0 0.00 0.00 0.00 79 1015.0
20240614032003 73 77 0.0 0.0 0.00 0.00 0.00 78 1014.9
20240614031503 73 77 0.0 0.0 0.00 0.00 0.00 78 1014.9
20240614031002 73 77 0.0 0.0 0.00 0.00 0.00 78 1014.7
20240614030502 73 77 0.0 0.0 0.00 0.00 0.00 78 1014.7
20240614030003 73 77 0.0 0.0 0.00 0.00 0.00 79 1014.7
20240614025503 73 77 0.0 0.0 0.00 0.00 0.00 78 1014.6
20240614025003 73 77 0.0 0.0 0.00 0.00 0.00 77 1014.6
20240614024518 73 77 0.0 0.0 0.00 0.00 0.00 77 1014.6
20240614024003 73 77 0.0 0.0 0.00 0.00 0.00 75 1014.6
20240614023502 74 77 0.0 0.0 0.00 0.00 0.00 75 1014.5
20240614023008 74 77 0.0 0.0 0.00 0.00 0.00 74 1014.6
20240614022502 74 77 0.0 0.0 0.00 0.00 0.00 74 1014.6
20240614022002 75 77 0.0 0.9 0.00 0.00 0.00 72 1014.6
20240614021503 75 77 0.0 0.9 0.00 0.00 0.00 73 1014.6
20240614021003 75 78 0.0 0.0 0.00 0.00 0.00 74 1014.5
20240614020502 75 78 0.0 0.0 0.00 0.00 0.00 72 1014.4
20240614020004 76 77 0.0 0.9 0.00 0.00 0.00 72 1014.3
20240614015504 76 78 0.0 0.9 0.00 0.00 0.00 72 1014.2
20240614015004 75 126 0.0 0.0 0.00 0.00 0.00 72 1014.2
20240614014506 76 127 0.0 0.0 0.00 0.00 0.00 71 1014.2
20240614014004 76 127 0.0 0.0 0.00 0.00 0.00 70 1014.2
20240614013503 77 127 0.0 0.0 0.00 0.00 0.00 68 1014.3
20240614013018 77 126 0.0 0.0 0.00 0.00 0.00 69 1014.3
20240614012503 78 126 0.0 0.0 0.00 0.00 0.00 66 1014.2
20240614012003 78 181 0.0 0.0 0.00 0.00 0.00 66 1014.1
20240614011511 78 181 0.0 0.0 0.00 0.00 0.00 64 1014.1
20240614011010 79 181 0.0 0.0 0.00 0.00 0.00 63 1014.1
20240614010505 79 181 0.0 0.0 0.00 0.00 0.00 63 1014.1
20240614010003 80 181 0.0 0.0 0.00 0.00 0.00 62 1014.2
20240614005503 80 181 0.0 0.0 0.00 0.00 0.00 60 1014.2
20240614005002 81 181 0.0 0.0 0.00 0.00 0.00 58 1014.2
20240614004515 81 181 0.0 0.0 0.00 0.00 0.00 58 1014.3
20240614004003 82 181 0.0 0.0 0.00 0.00 0.00 57 1014.3
20240614003504 82 181 0.0 0.0 0.00 0.00 0.00 57 1014.4
20240614003004 83 181 0.0 0.0 0.00 0.00 0.00 56 1014.5
20240614002505 83 181 0.0 0.0 0.00 0.00 0.00 55 1014.5
20240614002004 84 181 0.0 0.0 0.00 0.00 0.00 53 1014.6
20240614001515 84 181 0.0 1.7 0.00 0.00 0.00 53 1014.6
20240614001003 85 182 0.0 1.7 0.00 0.00 0.00 52 1014.6
20240614000503 85 195 0.0 2.6 0.00 0.00 0.00 51 1014.7
20240614000007 85 161 0.9 2.6 0.00 0.00 0.00 50 1014.6
20240613235504 85 179 1.7 2.6 0.00 0.00 0.00 52 1014.7
20240613235007 85 172 0.9 2.6 0.00 0.00 0.00 51 1014.7
20240613234546 85 176 0.9 2.6 0.00 0.00 0.00 49 1014.7
20240613234001 85 170 1.7 3.5 0.00 0.00 0.00 50 1014.6
20240613233502 86 183 0.0 3.5 0.00 0.00 0.00 52 1014.7
20240613233003 86 175 0.0 4.3 0.00 0.00 0.00 50 1014.7
20240613232502 86 67 0.0 4.3 0.00 0.00 0.00 52 1014.8
20240613232003 86 143 0.0 2.6 0.00 0.00 0.00 50 1014.8
20240613231505 86 268 0.0 2.6 0.00 0.00 0.00 52 1014.7
20240613231003 86 188 0.9 2.6 0.00 0.00 0.00 49 1014.7
20240613230503 87 189 0.9 1.7 0.00 0.00 0.00 48 1014.7
20240613230007 87 142 0.0 1.7 0.00 0.00 0.00 46 1014.6
20240613225503 87 72 0.0 1.7 0.00 0.00 0.00 46 1014.7
20240613225004 86 28 0.0 1.7 0.00 0.00 0.00 48 1014.6
20240613224509 87 32 0.9 1.7 0.00 0.00 0.00 45 1014.5
20240613224003 87 152 0.0 3.5 0.00 0.00 0.00 44 1014.5
20240613223505 88 172 0.0 3.5 0.00 0.00 0.00 46 1014.6
20240613223010 88 184 2.6 3.5 0.00 0.00 0.00 46 1014.6
20240613222501 88 205 0.9 2.6 0.00 0.00 0.00 48 1014.6
20240613222006 89 154 0.0 3.5 0.00 0.00 0.00 44 1014.7
20240613221503 90 179 2.6 4.3 0.00 0.00 0.00 43 1014.7
20240613221003 90 145 0.9 4.3 0.00 0.00 0.00 43 1014.7
20240613220502 90 149 0.0 3.5 0.00 0.00 0.00 43 1014.9
20240613220006 90 151 0.0 1.7 0.00 0.00 0.00 41 1014.8
20240613215504 90 230 0.9 1.7 0.00 0.00 0.00 44 1015.0
20240613215003 90 283 0.0 1.7 0.00 0.00 0.00 43 1015.0
20240613214506 91 233 0.9 5.2 0.00 0.00 0.00 43 1015.0
20240613214004 92 170 2.6 5.2 0.00 0.00 0.00 39 1015.0
20240613213503 92 179 0.9 2.6 0.00 0.00 0.00 38 1015.0
20240613213009 92 159 0.9 2.6 0.00 0.00 0.00 41 1015.0
20240613212503 90 156 0.9 3.5 0.00 0.00 0.00 45 1015.0
20240613212004 89 198 0.9 6.1 0.00 0.00 0.00 43 1015.0
20240613211517 90 172 3.5 6.1 0.00 0.00 0.00 42 1015.0
20240613211007 91 168 2.6 4.3 0.00 0.00 0.00 43 1015.1
20240613210502 92 236 0.9 3.5 0.00 0.00 0.00 43 1015.2
20240613210002 92 24 0.0 4.3 0.00 0.00 0.00 41 1015.2
20240613205503 92 164 1.7 4.3 0.00 0.00 0.00 42 1015.2
20240613205002 92 148 2.6 7.0 0.00 0.00 0.00 43 1015.3
20240613204501 92 171 2.6 7.0 0.00 0.00 0.00 45 1015.3
20240613204003 91 162 0.9 2.6 0.00 0.00 0.00 44 1015.3
20240613203502 91 58 0.9 3.5 0.00 0.00 0.00 42 1015.3
20240613203002 91 153 1.7 3.5 0.00 0.00 0.00 39 1015.4
20240613202502 90 211 0.9 5.2 0.00 0.00 0.00 40 1015.4
20240613202003 89 184 3.5 5.2 0.00 0.00 0.00 42 1015.4
20240613201503 89 174 1.7 4.3 0.00 0.00 0.00 45 1015.5
20240613201003 89 145 1.7 4.3 0.00 0.00 0.00 47 1015.5
20240613200503 88 42 0.9 4.3 0.00 0.00 0.00 51 1015.5
20240613200001 88 60 2.6 5.2 0.00 0.00 0.00 45 1015.5
20240613195502 90 17 0.9 7.0 0.00 0.00 0.00 44 1015.7
20240613195003 90 151 2.6 7.0 0.00 0.00 0.00 43 1015.6
20240613194511 91 182 3.5 7.0 0.00 0.00 0.00 44 1015.6
20240613194003 92 140 2.6 6.1 0.00 0.00 0.00 43 1015.7
20240613193503 91 123 2.6 6.1 0.00 0.00 0.00 44 1015.7
20240613193009 91 250 1.7 3.5 0.00 0.00 0.00 43 1015.7
20240613192502 91 175 1.7 5.2 0.00 0.00 0.00 46 1015.7
20240613192002 91 356 1.7 7.0 0.00 0.00 0.00 45 1015.7
20240613191503 90 163 1.7 7.0 0.00 0.00 0.00 47 1015.7
20240613191002 90 193 2.6 5.2 0.00 0.00 0.00 45 1015.7
20240613190502 91 137 2.6 5.2 0.00 0.00 0.00 47 1015.7
20240613190004 90 148 1.7 4.3 0.00 0.00 0.00 47 1015.7
20240613185504 89 41 0.9 3.5 0.00 0.00 0.00 50 1015.7
20240613185003 88 10 0.9 3.5 0.00 0.00 0.00 46 1015.8
20240613184511 89 143 1.7 3.5 0.00 0.00 0.00 48 1015.9
20240613184003 91 136 1.7 4.3 0.00 0.00 0.00 46 1015.8
20240613183503 90 142 0.9 4.3 0.00 0.00 0.00 47 1015.9
20240613183016 89 13 2.6 4.3 0.00 0.00 0.00 49 1015.9
20240613182503 89 305 1.7 4.3 0.00 0.00 0.00 49 1015.8
20240613182004 89 237 2.6 4.3 0.00 0.00 0.00 48 1015.9
20240613181506 90 207 0.0 4.3 0.00 0.00 0.00 50 1016.0
20240613181004 89 169 2.6 4.3 0.00 0.00 0.00 49 1016.0
20240613180506 88 25 0.9 6.1 0.00 0.00 0.00 54 1016.0
20240613180007 88 26 1.7 6.1 0.00 0.00 0.00 50 1016.0
20240613175502 89 140 0.9 3.5 0.00 0.00 0.00 48 1016.1
20240613175003 89 4 0.9 4.3 0.00 0.00 0.00 51 1016.1
20240613174503 89 64 0.9 4.3 0.00 0.00 0.00 53 1016.1
20240613174003 87 164 1.7 3.5 0.00 0.00 0.00 50 1016.1
20240613173503 87 269 0.0 3.5 0.00 0.00 0.00 50 1016.1
20240613173008 86 60 0.9 3.5 0.00 0.00 0.00 55 1016.1
20240613172503 86 212 0.0 3.5 0.00 0.00 0.00 56 1016.1
20240613172003 85 158 0.9 3.5 0.00 0.00 0.00 52 1016.1
20240613171503 85 53 1.7 5.2 0.00 0.00 0.00 54 1016.1
20240613171004 85 67 3.5 5.2 0.00 0.00 0.00 52 1016.1
20240613170505 86 15 0.0 4.3 0.00 0.00 0.00 50 1016.1
20240613170008 87 179 1.7 4.3 0.00 0.00 0.00 49 1016.0
20240613165504 85 188 1.7 3.5 0.00 0.00 0.00 54 1016.1
20240613165007 86 294 0.9 3.5 0.00 0.00 0.00 52 1016.1
20240613164512 85 160 0.9 3.5 0.00 0.00 0.00 51 1016.2
20240613164002 84 322 0.9 5.2 0.00 0.00 0.00 56 1016.1
20240613163502 83 63 2.6 5.2 0.00 0.00 0.00 54 1016.0
20240613163003 83 65 2.6 6.1 0.00 0.00 0.00 54 1016.1
20240613162503 83 60 2.6 6.1 0.00 0.00 0.00 59 1016.0
20240613162005 83 54 1.7 5.2 0.00 0.00 0.00 53 1016.2
20240613161507 82 40 2.6 5.2 0.00 0.00 0.00 56 1016.3
20240613161003 82 34 3.5 7.0 0.00 0.00 0.00 54 1016.3
20240613160503 82 67 4.3 7.0 0.00 0.00 0.00 54 1016.3
20240613160010 83 60 2.6 6.1 0.00 0.00 0.00 56 1016.4
20240613155505 83 54 2.6 6.1 0.00 0.00 0.00 57 1016.3
20240613155005 83 66 0.9 5.2 0.00 0.00 0.00 55 1016.4
20240613154510 84 41 0.0 2.6 0.00 0.00 0.00 57 1016.4
20240613154007 84 98 0.0 4.3 0.00 0.00 0.00 57 1016.4
20240613153504 84 53 0.9 4.3 0.00 0.00 0.00 55 1016.4
20240613153010 84 114 0.0 4.3 0.00 0.00 0.00 58 1016.4
20240613152508 83 157 0.0 4.3 0.00 0.00 0.00 56 1016.5
20240613152004 83 65 1.7 4.3 0.00 0.00 0.00 56 1016.5
20240613151517 84 67 0.9 3.5 0.00 0.00 0.00 58 1016.3
20240613151003 84 147 1.7 3.5 0.00 0.00 0.00 54 1016.4
20240613150504 83 165 1.7 3.5 0.00 0.00 0.00 56 1016.3
20240613150009 83 98 0.0 3.5 0.00 0.00 0.00 61 1016.2
20240613145505 82 24 0.9 3.5 0.00 0.00 0.00 62 1016.3
20240613145004 82 43 0.9 3.5 0.00 0.00 0.00 63 1016.3
20240613144508 82 223 1.7 3.5 0.00 0.00 0.00 58 1016.3
20240613144006 82 120 0.9 5.2 0.00 0.00 0.00 59 1016.3
20240613143505 83 135 2.6 5.2 0.00 0.00 0.00 58 1016.4
20240613143010 83 149 0.0 3.5 0.00 0.00 0.00 59 1016.4
20240613142503 82 169 0.9 3.5 0.00 0.00 0.00 60 1016.3
20240613142005 82 105 0.0 2.6 0.00 0.00 0.00 66 1016.3
20240613141512 81 139 0.0 2.6 0.00 0.00 0.00 64 1016.4
20240613141003 81 146 0.9 2.6 0.00 0.00 0.00 63 1016.4
20240613140503 81 147 0.9 2.6 0.00 0.00 0.00 63 1016.4
20240613140004 80 89 0.0 1.7 0.00 0.00 0.00 65 1016.4
20240613135504 80 160 0.9 3.5 0.00 0.00 0.00 65 1016.4
20240613135006 80 160 1.7 3.5 0.00 0.00 0.00 66 1016.3
20240613134507 80 134 0.0 2.6 0.00 0.00 0.00 69 1016.3
20240613134002 80 67 0.9 2.6 0.00 0.00 0.00 68 1016.3
20240613133502 79 79 0.0 1.7 0.00 0.00 0.00 69 1016.3
20240613133009 78 32 0.0 0.9 0.00 0.00 0.00 71 1016.3
20240613132506 78 113 0.0 0.9 0.00 0.00 0.00 71 1016.3
20240613132006 76 156 0.0 2.6 0.00 0.00 0.00 72 1016.3